Location: Perryvale
(54.4667°N, 113.3833°W)
Time: 21:02:31
(UTC+00:00)

Transit 2A - Pass Details

Date: 22 May 2024
Orbit: 592 x 959 km, 66.7° (Epoch: 19 June)

Event Time Altitude Azimuth Distance (km) Brightness Sun altitude
Exits shadow 08:11:44 - 250° (WSW) 2,763 8.6 -14.5°
Reaches altitude 10° 08:13:24 10° 256° (WSW) 2,146 8.1 -14.5°
Maximum altitude 08:18:02 42° 327° (NNW) 1,059 7.1 -14.3°
Drops below altitude 10° 08:23:12 10° 38° (NE) 2,386 9.6 -14.2°
Sets 08:25:55 0° 45° (NE) 3,384 10.4 -14.1°
